OBJECT X, 43897

Orbit data source: Space-Track

You're viewing an Uncataloged Satellite

Recently launched and/or uncataloged satellites may have evolving metadata. Metadata may include but not limited to: Owner, Maufacturer, Bus, Motor, and Mission.

OBJECT X, 43897 is a satellite in SSO that was launched on Thu, 27 Dec 2018 UTC via a SOYUZ-2-1A launch vehicle from the Vostochny Cosmodrome (VOSTO). Unknown objects in Earth's orbit typically refer to objects detected orbiting the Earth but have not yet been identified or cataloged. These objects could be anything from previously untracked satellites, spent rocket stages, debris from satellite collisions, or even natural meteoroids temporarily captured by Earth's gravity.

Loading next visibility...
Identifier
43897, 2018-111X
Orbit
SSO
Country
Flag of TBDTBD
Related business
None
Manufacturer
Unknown
Mission
Civil Technology
Bus & Motor
Unknown
Mass
Unknown
Launch date (UTC)
2018-12-27 (7 years ago)
Launch vehicle
SOYUZ-2-1A
Launch site
Vostochny Cosmodrome (VOSTO)
Object type
Unknown
Shape & HBR
Box, 0.1 m
Radar Cross Section
0.080 m², Medium (>0.1 m² and < 1m²)

Expand to show TLE details & history
Last TLE update: 2 hours ago

TLE from 2 hours ago
0 OBJECT X
1 43897U 18111X   25311.86719422  .00093868  00000-0  64475-3 0  9997
2 43897  96.9830 177.5176 0004333 252.1909 107.8884 15.74395475384149
Epoch: 2025-11-07T20:48Z
TLE epoch observation values (Epoch: 2025-11-07T20:48:45.580Z)
Latitude
-0.00004°
Longitude
178.02269°
Altitude
350.424 km
Speed
7.698 km/s
True Right ascension
11h 50m 04s
True Declination
0° 00' 00"
Sunlit
Object was in daylight at epoch
Visualization orbit readout
Latitude
Unknown
Longitude
Unknown
Altitude
Unknown
Speed
Unknown
Apparent Right ascension
Unknown
Apparent Declination
Unknown
Sunlit
N/A
Visualization observer readout
Local Sidereal Time
19:22:15
Azimuth
Unknown
Elevation
Unknown
Doppler factor
Unknown
Orbital elements
Apogee altitude
346.14 km
Perigee altitude
340.315 km
Semi-major axis
6,721.365 km
Eccentricity
0.00043
Inclination
96.983°
RAAN
177.5176°
Arg. of periapsis
252.1909°
True anomaly
107.93564°
Mean anomaly
107.8884°
Eccentric anomaly
107.91202°
Mean motion
3.93874 °/min
Orbital period
91.4 mins
BSTAR
0.00064475
Loading maneuver chart data...
Computing Atmospheric mass density...
Loading historical data...
Loading historical data...
Loading historical data...
Loading historical data...
Loading historical data...
Loading historical data...
Loading historical data...

Documentation

Showing up to 5 results
|